Location: Unspecified
(51.5147°N, 7.4673°E)
Time: 06:37:40
(UTC+01:00)

Transit 4A - Pass Details

Date: 21 February 2026
Orbit: 863 x 978 km, 66.8° (Epoch: 14 March)

Event Time Altitude Azimuth Distance (km) Brightness Sun altitude
Exits shadow 03:45:53 47° 69° (ENE) 1,181 8.7 -34.9°
Drops below altitude 10° 03:50:23 10° 43° (NE) 2,619 11.0 -34.3°
Sets 03:52:58 0° 40° (NE) 3,583 11.9 -34.0°
